Lapse_Rate
5.2 5.2 5.2 5.4 5.8 5.0 5.6 5.6 5.8 5.5 5.4 5.5 5.2 5.3 5.5 5.1 5.5 5.4 5.0 4.9 5.1 5.1 5.1 5.8 5.4 5.7 5.6 5.5 5.7 6.0 5.9 6.0 6.5 6.5 6.3 6.2 6.2 5.7
5.4 4.9 4.9 4.9 5.2 5.1 5.3 5.1 5.6 5.5 5.2 5.5 5.4 5.6 5.3 4.9 5.5 5.3 5.4 5.1 5.2 5.1 5.5 5.7 5.2 5.2 5.4 5.3 5.7 5.7 5.8 6.1 6.4 6.2 6.5 6.2 6.0 5.7
5.2 5.2 5.4 5.2 5.3 5.4 5.0 5.1 5.1 5.4 5.2 5.6 5.7 5.7 5.6 5.5 5.5 5.4 5.2 5.3 5.2 5.3 5.2 5.6 5.2 5.5 5.3 5.7 5.7 5.9 5.6 5.6 5.8 6.0 5.8 6.0 6.1 6.0
4.6 5.0 5.1 5.1 5.4 5.2 5.1 4.9 5.1 5.4 5.4 5.4 5.2 5.4 5.4 5.7 5.5 5.5 5.2 5.1 5.1 4.9 5.1 5.1 5.1 5.6 5.7 5.2 5.3 5.7 5.3 5.0 5.9 6.0 6.1 5.5 5.4 5.5
5.5 5.2 5.0 5.1 5.3 5.0 5.1 4.8 5.0 4.9 4.8 5.0 5.1 5.0 5.2 5.3 5.4 5.4 5.3 5.1 5.1 4.8 5.1 4.9 5.0 4.9 5.1 5.4 5.2 5.5 5.6 5.4 5.4 5.5 5.3 5.2 5.4 5.6
5.0 5.2 5.1 5.1 4.9 5.1 5.1 5.0 4.8 4.8 4.9 4.9 4.9 4.6 4.9 5.1 5.0 5.0 5.0 5.1 5.3 5.3 5.1 5.0 5.2 4.9 5.0 5.0 5.3 5.0 5.1 5.2 5.3 5.2 5.1 5.2 5.3 5.4
4.5 4.5 4.5 4.7 4.9 5.0 4.9 5.0 4.8 4.7 4.8 4.7 4.7 4.7 4.8 4.7 4.6 4.8 5.2 4.8 4.8 4.8 4.8 4.8 4.8 4.6 4.8 4.7 4.9 4.9 4.6 4.8 4.9 5.0 5.0 5.1 5.1 4.9
4.6 4.5 4.5 4.6 4.6 4.8 4.7 4.8 4.8 4.7 4.8 4.7 4.8 4.8 4.6 4.6 4.7 4.6 4.7 4.8 4.8 4.5 4.6 4.3 4.1 4.0 4.3 4.1 4.3 4.3 4.1 4.3 4.8 4.7 4.8 4.8 4.6 4.7
4.8 4.6 4.4 4.4 4.3 4.3 4.4 4.2 4.0 4.2 4.2 4.2 4.2 4.3 4.4 4.4 4.3 4.4 4.6 4.7 4.7 4.9 3.8 3.4 3.2 3.1 3.4 3.7 3.8 4.2 4.4 4.3 4.2 4.2 4.2 4.3 4.1 4.3
4.8 4.8 4.7 4.5 4.5 4.4 4.1 4.2 4.1 4.1 3.9 3.6 3.9 4.0 3.8 3.6 3.7 3.8 3.6 3.8 4.2 4.0 3.6 3.1 2.3 2.4 2.6 3.2 3.5 3.5 3.7 3.8 3.9 3.9 4.1 3.9 3.9 3.8
5.1 4.9 4.8 4.6 4.5 4.3 3.9 4.1 4.3 4.3 4.0 3.9 3.4 3.3 3.3 3.3 3.2 3.4 3.6 3.6 3.6 3.9 3.7 3.3 2.9 2.8 2.6 2.8 2.9 3.2 3.2 3.1 3.1 3.3 3.3 3.5 3.4 3.4
5.2 5.2 5.2 5.1 4.9 5.0 5.0 4.8 4.4 4.1 3.9 3.9 4.0 3.9 3.6 3.4 3.3 3.5 3.4 3.3 3.3 3.4 3.4 3.4 3.1 2.7 2.4 2.5 2.4 2.6 2.7 2.7 2.9 3.0 3.1 3.1 3.0 3.6
5.1 5.0 4.8 4.7 4.8 4.7 4.9 4.8 4.6 4.5 4.8 4.7 4.3 3.9 3.7 3.5 3.4 3.4 3.2 3.1 3.1 3.2 3.4 3.3 3.2 3.1 3.0 2.9 2.5 2.3 2.4 2.5 2.5 2.6 2.7 2.4 2.4 2.5
4.9 4.9 4.8 4.7 4.8 4.6 4.2 4.2 4.3 4.0 4.0 4.0 4.0 3.9 3.7 3.6 3.5 3.5 3.4 3.2 3.0 2.9 3.0 3.1 3.3 3.2 3.2 3.1 3.1 3.0 2.9 2.7 2.4 2.3 2.3 2.3 2.4 2.3
4.6 4.6 4.6 4.5 4.6 4.5 4.3 4.4 3.9 3.9 3.8 3.7 3.7 3.5 3.4 3.2 3.2 3.1 3.1 3.3 3.6 3.6 3.5 3.6 3.3 3.0 2.9 2.9 2.9 2.8 2.7 2.8 2.7 2.6 2.6 2.5 2.5 2.4
4.5 4.6 4.4 4.3 4.3 4.1 3.9 3.7 3.6 3.4 3.3 3.3 3.1 3.1 3.1 3.1 3.0 2.8 3.0 2.9 2.8 3.0 3.0 3.1 3.2 3.2 3.2 3.2 2.9 2.7 2.6 2.5 2.7 2.6 2.6 2.5 2.5 2.6
4.4 4.3 4.3 4.2 4.1 4.0 3.8 3.5 3.2 3.0 2.8 2.8 2.7 2.7 2.4 2.2 2.3 2.4 2.3 2.3 2.4 2.5 2.7 2.7 2.7 2.6 2.7 2.8 2.8 2.9 2.8 2.8 2.7 2.5 2.4 2.5 2.4 2.2
4.8 4.9 5.0 5.1 5.1 4.9 4.6 4.3 4.0 3.6 3.2 2.9 2.7 2.6 2.5 2.5 2.1 1.8 2.0 1.9 2.0 2.0 2.0 2.2 2.3 2.4 2.3 2.4 2.4 2.4 2.4 2.4 2.3 2.3 2.3 2.3 2.4 2.6
5.5 5.4 5.3 5.3 5.3 5.3 5.1 4.9 4.7 4.4 4.1 3.5 3.1 3.0 2.9 2.7 2.5 2.5 2.5 2.3 2.4 2.4 2.5 2.3 2.3 2.3 2.4 2.3 2.5 2.4 2.3 2.2 2.2 2.2 2.1 2.1 2.1 2.1
5.8 5.7 5.7 5.7 5.6 5.4 5.1 4.8 4.4 4.2 3.9 3.6 3.1 2.8 2.5 2.4 2.4 2.4 2.2 2.2 2.2 2.2 2.1 2.2 2.5 2.5 2.4 2.4 2.3 2.4 2.6 2.6 2.4 2.0 1.8 1.8 1.8 1.8
6.0 6.0 5.8 5.6 5.2 4.8 4.4 4.1 3.8 3.6 3.5 3.5 3.2 2.8 2.4 2.1 2.1 2.1 2.1 2.0 2.0 2.2 2.4 2.5 2.4 2.3 2.5 2.7 2.7 2.7 2.8 2.8 2.7 2.5 2.4 2.3 2.1 2.0
5.8 5.7 5.5 5.3 4.9 4.4 4.0 3.8 3.6 3.4 3.4 3.3 3.2 3.2 2.9 2.6 2.4 2.2 2.1 2.1 2.1 2.0 2.2 2.4 2.4 2.4 2.4 2.3 2.4 2.6 2.8 2.9 2.7 2.4 2.2 1.9 1.9 2.3
5.5 5.4 5.2 4.9 4.4 4.0 3.8 3.8 3.7 3.7 3.5 3.4 3.2 3.1 2.8 2.8 2.7 2.7 2.6 2.7 2.7 2.6 2.6 2.6 2.7 2.8 2.8 2.8 2.7 2.6 2.5 2.5 2.7 2.6 2.6 2.5 2.4 2.2
Wind_Speed
8 7 5 4 4 5 5 5 2 3 4 3 2 3 2 2 2 20 21 17 20 22 23 25 20 17 15 15 15 14 15 15 13 12 10 9 8 7
4 6 6 3 4 5 4 5 4 2 3 3 3 3 3 1 1 7 16 17 19 23 23 23 21 17 16 17 17 17 15 14 12 11 11 10 9 7
7 6 7 5 3 4 3 4 5 3 2 2 2 5 4 3 3 4 7 11 16 23 24 22 21 19 16 14 15 15 13 13 13 13 11 9 9 9
9 8 7 4 6 4 2 4 4 3 3 4 1 2 3 4 4 4 6 5 8 18 20 19 18 18 17 17 16 14 13 12 11 11 10 8 7 7
10 9 7 7 7 4 3 3 3 3 3 3 2 0 3 2 3 4 4 5 2 10 14 16 17 19 18 17 15 14 14 12 11 10 8 7 6 5
10 9 8 8 7 6 5 4 3 4 3 2 2 1 2 2 2 2 1 2 1 2 1 11 16 16 17 16 15 14 13 13 12 11 10 9 7 7
8 8 9 13 15 11 5 4 4 3 2 2 2 1 1 2 5 5 5 3 1 1 1 2 8 14 16 17 15 15 15 14 12 11 10 10 10 10
8 7 8 13 13 17 14 9 5 2 2 2 2 2 3 1 2 4 6 5 4 9 3 3 7 4 12 12 14 14 14 13 12 12 11 12 11 11
8 7 7 7 9 7 12 14 13 10 7 2 1 1 2 5 5 5 8 7 3 2 5 5 5 3 12 11 10 13 14 13 13 13 13 13 13 12
7 6 7 6 5 5 4 5 4 4 6 5 2 2 2 7 10 8 7 3 2 2 5 2 1 3 7 14 13 15 15 15 15 14 14 14 14 15
8 7 5 3 8 11 4 4 2 1 3 5 6 6 4 2 9 7 5 6 2 2 5 2 2 2 2 3 14 15 16 16 15 14 14 15 16 17
5 6 11 9 12 12 6 6 4 2 1 1 1 2 2 6 8 3 3 2 2 1 3 3 2 2 1 1 5 12 13 14 16 16 15 16 17 16
4 4 5 10 10 11 11 2 2 4 4 2 2 2 1 2 1 7 13 5 3 2 4 3 2 3 2 2 1 5 9 8 8 8 11 12 13 16
3 3 4 7 8 13 11 13 18 12 3 3 2 1 1 2 3 5 4 7 9 7 9 11 2 3 4 3 3 2 5 9 8 9 11 13 15 18
2 3 7 9 10 8 12 11 12 5 5 3 2 1 2 4 4 4 6 7 8 4 8 12 8 4 4 3 2 2 3 3 10 9 11 11 12 13
4 4 5 8 10 9 6 7 4 2 1 3 4 3 4 1 1 3 2 3 3 3 10 10 9 8 4 5 5 4 4 4 4 8 10 11 12 14
4 2 2 2 3 3 3 3 3 2 2 2 1 2 4 4 2 3 1 2 4 3 4 6 11 10 7 4 4 5 5 5 5 6 5 6 9 12
5 3 2 2 2 2 2 3 2 4 2 2 2 2 3 3 4 4 1 1 1 1 1 1 1 1 1 3 9 4 4 6 5 6 7 7 7 10
3 2 2 1 1 2 2 2 2 4 4 2 2 3 3 3 6 2 3 3 3 2 3 3 3 3 4 6 2 9 3 2 1 2 4 5 6 6
2 2 2 1 1 1 2 2 2 4 3 3 3 3 3 3 2 3 4 2 3 4 3 2 4 5 7 7 4 2 4 2 2 3 2 3 11 16
2 2 2 2 2 2 2 2 3 3 3 3 3 3 3 2 3 3 4 12 10 3 3 3 2 6 3 3 2 2 4 10 9 3 2 2 3 2
3 3 3 3 3 3 2 2 2 3 3 2 3 3 3 2 3 4 3 4 4 3 3 0 1 2 1 2 3 3 3 4 13 13 17 18 3 3
4 4 3 3 2 3 3 2 3 4 3 3 3 3 3 3 3 3 2 2 2 1 0 1 1 1 1 2 5 3 2 3 2 3 6 18 23 28
Wind_Direction
101 107 101 56 109 89 71 59 354 139 196 203 144 215 243 139 187 148 152 159 169 156 151 147 150 152 161 159 154 155 153 149 149 154 152 148 145 144
68 98 111 144 98 96 95 109 70 82 125 23 44 348 168 99 17 128 143 152 149 142 145 145 146 157 164 161 161 164 164 160 157 162 156 163 160 163
56 53 51 52 80 87 89 112 115 106 93 91 50 15 28 81 40 85 110 140 147 149 154 152 156 166 172 173 179 167 171 172 167 167 170 177 179 185
57 62 53 64 55 54 66 84 126 103 134 121 65 92 45 25 51 25 66 86 136 153 156 159 167 174 180 184 186 172 176 181 178 177 174 185 190 198
45 48 46 59 64 66 59 64 82 89 74 107 110 117 95 86 67 8 14 75 119 162 166 175 183 185 186 188 189 185 179 188 186 184 185 193 198 209
59 56 41 57 60 55 62 57 75 103 88 101 93 109 109 133 111 133 160 354 37 279 175 193 194 193 194 193 192 194 189 194 192 191 196 204 207 214
63 57 57 61 70 65 57 53 64 65 101 116 108 106 100 135 179 161 180 159 225 227 156 256 201 200 201 201 199 196 198 198 200 203 209 216 216 224
59 51 53 55 48 68 76 76 69 88 109 126 124 171 135 149 166 183 178 170 207 204 178 227 206 206 200 207 197 199 201 204 209 216 219 221 226 229
53 48 53 43 48 47 59 64 65 76 79 76 99 150 144 177 172 191 213 219 196 158 172 202 181 198 211 210 198 195 198 214 226 221 223 224 226 224
52 46 53 29 11 72 59 57 58 69 105 108 119 118 235 196 192 199 210 134 104 114 187 205 180 196 194 217 216 216 220 225 223 223 228 234 236 243
57 23 67 32 25 49 57 63 64 8 7 68 128 133 102 159 177 137 166 182 185 194 189 136 179 136 173 221 226 227 230 233 230 235 239 242 248 255
47 40 34 28 25 21 63 39 6 335 243 215 328 331 51 151 156 142 151 178 149 158 218 154 148 136 218 201 231 230 236 244 246 249 251 256 257 264
43 38 20 10 11 7 6 65 307 340 3 360 194 184 206 276 263 174 175 174 195 242 196 164 162 160 163 175 247 214 210 224 226 249 253 256 259 261
34 9 333 343 28 15 7 11 19 39 19 25 358 250 212 212 205 227 204 201 208 213 191 183 185 175 168 180 205 205 204 215 204 217 241 259 265 265
357 347 355 355 357 356 338 4 15 13 3 6 15 343 289 257 217 185 212 224 232 230 202 196 187 178 185 199 173 186 182 214 223 225 234 240 245 243
302 346 349 19 15 14 16 11 2 342 336 351 347 342 333 317 221 198 209 198 209 208 231 229 209 195 209 213 207 213 209 226 212 237 240 243 241 240
286 78 56 49 27 14 360 356 4 351 332 298 302 315 339 333 349 0 294 222 215 191 196 208 226 225 232 226 224 223 225 224 227 234 226 249 249 243
67 71 61 55 51 23 358 337 332 338 320 318 303 275 278 276 304 329 269 217 321 358 14 32 45 46 8 275 235 237 224 238 235 225 236 252 259 252
91 72 111 56 7 5 4 353 321 318 316 269 272 273 276 268 284 243 261 267 256 230 219 196 218 231 248 255 229 234 247 212 216 245 236 241 260 266
102 151 173 185 259 303 327 331 321 331 317 310 288 261 255 251 250 266 266 248 261 268 249 220 220 219 227 247 232 247 301 188 223 254 245 258 266 281
179 177 201 202 226 240 268 288 294 295 288 336 304 297 278 216 254 252 250 268 252 187 217 229 239 273 131 96 32 297 265 267 270 242 218 212 241 285
190 191 210 210 217 221 244 247 282 290 295 298 288 294 287 270 262 255 242 247 252 195 207 319 16 70 69 176 229 236 277 300 290 288 282 274 208 245
197 200 210 212 200 213 222 233 230 259 252 251 259 268 269 273 252 252 247 236 273 268 186 343 9 15 240 191 234 238 250 270 265 300 281 275 273 274